Weather reports worldwide

Advertisment
Capo Carbonara, Italy (16564): temperature & dewpoint: 02.07.2020 17:00:00 - 08.07.2020 17:00:00 (CEST)Capo Carbonara, Italy (16564): wind speed: 02.07.2020 17:00:00 - 08.07.2020 17:00:00 (CEST)Capo Carbonara, Italy (16564): wind direction: 02.07.2020 17:00:00 - 08.07.2020 17:00:00 (CEST)Capo Carbonara, Italy (16564): reduced air pressure: 02.07.2020 17:00:00 - 08.07.2020 17:00:00 (CEST)Capo Carbonara, Italy (16564): visibility: 02.07.2020 17:00:00 - 08.07.2020 17:00:00 (CEST)
Date & Time tt [°C] td [°C] ff [km/h] ff [kn] dd ppp [hPa] vv [km]
08.07.2020 17:00:00 - - - - - - -
08.07.2020 16:00:00 29,0 23,0 21 11 E - 10
08.07.2020 15:00:00 29,0 24,0 21 11 E - 10
08.07.2020 14:00:00 29,8 24,1 18 10 E 1015,1 20
08.07.2020 13:00:00 28,0 23,0 18 10 E - 10
08.07.2020 12:00:00 27,0 23,0 16 9 E - 10
08.07.2020 11:00:00 25,6 22,1 18 10 E 1014,5 20
08.07.2020 10:00:00 24,0 21,0 18 10 ENE - 10
08.07.2020 09:00:00 24,0 21,0 16 9 ENE - 10
08.07.2020 08:00:00 23,2 20,2 8 4 NNE 1013,4 10
08.07.2020 07:00:00 - - - - - - -
08.07.2020 06:00:00 - - - - - - -
08.07.2020 05:00:00 - - - - - - -
08.07.2020 04:00:00 - - - - - - -
08.07.2020 03:00:00 - - - - - - -
08.07.2020 02:00:00 - - - - - - -
08.07.2020 01:00:00 - - - - - - -
08.07.2020 00:00:00 - - - - - - -
07.07.2020 23:00:00 24,4 21,5 15 8 NNE 1012,0 10
07.07.2020 22:00:00 25,0 21,0 11 6 NNE - 10
07.07.2020 21:00:00 24,0 19,0 21 11 WNW - 10
07.07.2020 20:00:00 26,4 19,1 26 14 W 1010,5 20
07.07.2020 19:00:00 28,0 20,0 16 9 W - 10
07.07.2020 18:00:00 29,0 22,0 9 5 W - 10
07.07.2020 17:00:00 28,6 21,6 11 6 W 1009,8 20
07.07.2020 16:00:00 27,0 18,0 55 30 W - 10
07.07.2020 15:00:00 26,0 17,0 59 32 W - 10
07.07.2020 14:00:00 25,6 17,3 67 36 W 1007,9 20
07.07.2020 13:00:00 26,0 17,0 61 33 W - 10
07.07.2020 12:00:00 26,0 16,0 54 29 W - 10
07.07.2020 11:00:00 24,0 16,3 63 34 W 1007,9 10
07.07.2020 10:00:00 23,0 17,0 61 33 W - 10
07.07.2020 09:00:00 24,0 17,0 42 23 W - 10
07.07.2020 08:00:00 22,4 17,3 37 20 W 1007,1 20
07.07.2020 07:00:00 - - - - - - -
07.07.2020 06:00:00 - - - - - - -
07.07.2020 05:00:00 - - - - - - -
07.07.2020 04:00:00 - - - - - - -
07.07.2020 03:00:00 - - - - - - -
07.07.2020 02:00:00 - - - - - - -
07.07.2020 01:00:00 - - - - - - -
07.07.2020 00:00:00 - - - - - - -
06.07.2020 23:00:00 24,2 21,4 28 15 W 1008,0 20
06.07.2020 22:00:00 26,0 20,0 24 13 W - 10
06.07.2020 21:00:00 28,0 20,0 41 22 W - 10
06.07.2020 20:00:00 29,0 19,1 50 27 W 1007,1 20
06.07.2020 19:00:00 27,0 24,0 28 15 WSW - 10
06.07.2020 18:00:00 27,0 24,0 34 18 WSW - 10
06.07.2020 17:00:00 26,8 23,6 39 21 SW 1008,7 10
06.07.2020 16:00:00 27,0 24,0 29 16 NW - 10
06.07.2020 15:00:00 27,0 24,0 28 15 WSW - 10
06.07.2020 14:00:00 26,4 23,5 28 15 SW 1010,7 20
06.07.2020 13:00:00 26,0 23,0 28 15 SW - 10
06.07.2020 12:00:00 26,0 22,0 29 16 SW - 10
06.07.2020 11:00:00 26,4 23,1 28 15 WSW 1011,1 20
06.07.2020 10:00:00 25,0 22,0 22 12 W - 10
06.07.2020 09:00:00 24,0 20,0 18 10 W - 10
06.07.2020 08:00:00 23,8 20,1 11 6 W 1011,5 20
06.07.2020 07:00:00 - - - - - - -
06.07.2020 06:00:00 - - - - - - -
06.07.2020 05:00:00 - - - - - - -
06.07.2020 04:00:00 - - - - - - -
06.07.2020 03:00:00 - - - - - - -
06.07.2020 02:00:00 - - - - - - -
06.07.2020 01:00:00 - - - - - - -
06.07.2020 00:00:00 - - - - - - -
05.07.2020 23:00:00 26,0 23,0 8 4 SSW - 10
05.07.2020 22:00:00 27,0 21,0 4 2 NW - 10
05.07.2020 21:00:00 26,0 24,0 9 5 ENE - 10
05.07.2020 20:00:00 27,6 24,9 13 7 ENE 1013,5 20
05.07.2020 19:00:00 28,0 25,0 18 10 ENE - 10
05.07.2020 18:00:00 30,0 25,0 8 4 E - 10
05.07.2020 17:00:00 30,0 23,9 11 6 SSW 1014,4 20
05.07.2020 16:00:00 29,0 24,0 13 7 SSW - 10
05.07.2020 15:00:00 29,0 23,0 24 13 SSW - 10
05.07.2020 14:00:00 28,2 22,9 26 14 SSW 1015,8 20
05.07.2020 13:00:00 29,0 21,0 13 7 N - 10
05.07.2020 12:00:00 27,0 22,0 15 8 SW - 10
05.07.2020 11:00:00 25,8 22,1 22 12 W 1016,4 20
05.07.2020 10:00:00 24,0 21,0 16 9 WSW - 10
05.07.2020 09:00:00 23,0 20,0 13 7 W - 10
05.07.2020 08:00:00 24,0 20,1 4 2 NW 1015,9 20
05.07.2020 07:00:00 - - - - - - -
05.07.2020 06:00:00 - - - - - - -
05.07.2020 05:00:00 - - - - - - -
05.07.2020 04:00:00 - - - - - - -
05.07.2020 03:00:00 - - - - - - -
05.07.2020 02:00:00 - - - - - - -
05.07.2020 01:00:00 - - - - - - -
05.07.2020 00:00:00 - - - - - - -
04.07.2020 23:00:00 24,2 21,5 28 15 W 1016,3 20
04.07.2020 22:00:00 25,0 21,0 8 4 W - 10
04.07.2020 21:00:00 26,0 20,0 4 2 N - 10
04.07.2020 20:00:00 27,2 21,0 13 7 NE 1015,3 20
04.07.2020 19:00:00 28,0 22,0 15 8 N - 10
04.07.2020 18:00:00 28,0 21,0 55 30 W - 10
04.07.2020 17:00:00 27,0 21,5 65 35 W 1013,4 20
04.07.2020 16:00:00 26,0 22,0 65 35 W - 10
04.07.2020 15:00:00 26,0 20,0 61 33 W - 10
04.07.2020 14:00:00 26,6 19,7 61 33 W 1014,6 20
04.07.2020 13:00:00 26,0 19,0 55 30 W - 10
04.07.2020 12:00:00 27,0 17,0 44 24 W - 10
04.07.2020 11:00:00 25,6 17,3 44 24 W 1015,9 20
04.07.2020 10:00:00 24,0 20,0 48 26 WSW - 10
04.07.2020 09:00:00 23,0 20,0 42 23 W - 10
04.07.2020 08:00:00 23,0 19,2 34 18 W 1015,5 20
04.07.2020 07:00:00 - - - - - - -
04.07.2020 06:00:00 - - - - - - -
04.07.2020 05:00:00 - - - - - - -
04.07.2020 04:00:00 - - - - - - -
04.07.2020 03:00:00 - - - - - - -
04.07.2020 02:00:00 - - - - - - -
04.07.2020 01:00:00 - - - - - - -
04.07.2020 00:00:00 - - - - - - -
03.07.2020 23:00:00 26,8 22,6 31 17 W 1013,1 20
03.07.2020 22:00:00 27,0 23,0 18 10 WNW - 10
03.07.2020 21:00:00 28,0 21,0 39 21 W - 10
03.07.2020 20:00:00 30,0 22,5 37 20 W 1010,7 20
03.07.2020 19:00:00 27,0 19,0 37 20 W - 10
03.07.2020 18:00:00 27,0 19,0 39 21 W - 10
03.07.2020 17:00:00 30,0 25,8 34 18 SW 1010,7 20
03.07.2020 16:00:00 30,0 26,0 31 17 SW - 10
03.07.2020 15:00:00 29,0 26,0 28 15 SW - 10
03.07.2020 14:00:00 32,0 23,5 35 19 WSW 1011,0 20
03.07.2020 13:00:00 31,0 20,0 9 5 WSW - 10
03.07.2020 12:00:00 29,0 23,0 26 14 W - 10
03.07.2020 11:00:00 28,2 23,1 29 16 W 1011,6 20
03.07.2020 10:00:00 26,0 22,0 26 14 W - 10
03.07.2020 09:00:00 25,0 21,0 26 14 W - 10
03.07.2020 08:00:00 24,0 20,6 18 10 W 1011,4 20
03.07.2020 07:00:00 - - - - - - -
03.07.2020 06:00:00 - - - - - - -
03.07.2020 05:00:00 - - - - - - -
03.07.2020 04:00:00 - - - - - - -
03.07.2020 03:00:00 - - - - - - -
03.07.2020 02:00:00 - - - - - - -
03.07.2020 01:00:00 - - - - - - -
03.07.2020 00:00:00 - - - - - - -
02.07.2020 23:00:00 26,0 23,1 8 4 NE 1011,3 10
02.07.2020 22:00:00 27,0 24,0 0 0 N - 10
02.07.2020 21:00:00 27,0 25,0 0 0 N - 10
02.07.2020 20:00:00 29,0 26,0 5 3 ESE 1010,8 10
02.07.2020 19:00:00 29,0 25,0 5 3 E - 10
02.07.2020 18:00:00 30,0 26,0 15 8 S - 10
02.07.2020 17:00:00 30,0 25,9 16 9 E 1011,0 10

tt = temperature
td = dewpoint
ff = wind speed
dd = wind direction
ppp = reduced air pressure
vv = visibility

Next stations